EN

Hourly Weather Godziembow

Today, 16 May, Sunday

Time Temperature Precipitation Wind Pressure Humidity
00:00 +10°C° 0 mm 3 mps 741 mmHg 85%
01:00 +10°C° 0 mm 3 mps 741 mmHg 87%
02:00 +10°C° 0 mm 3 mps 741 mmHg 88%
03:00 +10°C° 0.1 mm 3 mps 740 mmHg 90%
04:00 +10°C° 0.1 mm 3 mps 740 mmHg 92%
05:00 +10°C° 0.1 mm 3 mps 740 mmHg 93%
06:00 +11°C° 0.1 mm 4 mps 740 mmHg 90%
07:00 +12°C° 0.1 mm 4 mps 740 mmHg 88%
08:00 +13°C° 0.1 mm 5 mps 740 mmHg 85%
09:00 +15°C° 0.1 mm 5 mps 740 mmHg 79%
10:00 +16°C° 0.1 mm 5 mps 740 mmHg 72%
11:00 +17°C° 0.1 mm 5 mps 740 mmHg 66%
12:00 +19°C° 0.3 mm 5 mps 740 mmHg 65%
13:00 +19°C° 0.3 mm 5 mps 739 mmHg 65%
14:00 +19°C° 0.3 mm 5 mps 739 mmHg 65%
15:00 +19°C° 0.4 mm 4 mps 739 mmHg 67%
16:00 +19°C° 0.4 mm 4 mps 739 mmHg 69%
17:00 +19°C° 0.4 mm 3 mps 739 mmHg 71%
18:00 +17°C° 0.5 mm 3 mps 739 mmHg 77%
19:00 +16°C° 0.5 mm 3 mps 739 mmHg 83%
20:00 +14°C° 0.5 mm 2 mps 739 mmHg 90%
21:00 +14°C° 0.1 mm 2 mps 739 mmHg 91%
22:00 +13°C° 0.1 mm 2 mps 739 mmHg 93%
23:00 +13°C° 0.1 mm 2 mps 739 mmHg 94%

Tomorrow, 17 May, Monday

Time Temperature Precipitation Wind Pressure Humidity
00:00 +12°C° 0 mm 2 mps 739 mmHg 94%
01:00 +12°C° 0 mm 2 mps 740 mmHg 94%
02:00 +10°C° 0 mm 2 mps 740 mmHg 94%
03:00 +10°C° 0 mm 2 mps 740 mmHg 94%
04:00 +9°C° 0 mm 2 mps 740 mmHg 94%
05:00 +9°C° 0 mm 2 mps 740 mmHg 94%
06:00 +12°C° 0 mm 2 mps 740 mmHg 89%
07:00 +13°C° 0 mm 2 mps 740 mmHg 84%
08:00 +15°C° 0 mm 2 mps 740 mmHg 78%
09:00 +16°C° 0 mm 2 mps 740 mmHg 72%
10:00 +18°C° 0 mm 2 mps 740 mmHg 65%
11:00 +19°C° 0 mm 2 mps 739 mmHg 59%
12:00 +20°C° 0 mm 2 mps 739 mmHg 56%
13:00 +20°C° 0 mm 2 mps 739 mmHg 53%
14:00 +21°C° 0 mm 2 mps 738 mmHg 50%
15:00 +21°C° 0 mm 2 mps 738 mmHg 53%
16:00 +21°C° 0 mm 2 mps 738 mmHg 55%
17:00 +20°C° 0 mm 2 mps 737 mmHg 57%
18:00 +19°C° 0 mm 2 mps 737 mmHg 63%
19:00 +17°C° 0 mm 2 mps 737 mmHg 69%
20:00 +16°C° 0 mm 2 mps 737 mmHg 75%
21:00 +15°C° 0 mm 2 mps 736 mmHg 77%
22:00 +14°C° 0 mm 2 mps 736 mmHg 79%
23:00 +13°C° 0 mm 2 mps 736 mmHg 82%

Day after tomorrow, 18 May, Tuesday

Time Temperature Precipitation Wind Pressure Humidity
00:00 +13°C° 0 mm 2 mps 736 mmHg 85%
01:00 +12°C° 0 mm 3 mps 736 mmHg 88%
02:00 +12°C° 0 mm 3 mps 736 mmHg 91%
03:00 +11°C° 0 mm 4 mps 736 mmHg 92%
04:00 +10°C° 0 mm 5 mps 736 mmHg 93%
05:00 +10°C° 0 mm 5 mps 736 mmHg 93%
06:00 +10°C° 0.2 mm 6 mps 736 mmHg 92%
07:00 +10°C° 0.2 mm 6 mps 736 mmHg 91%
08:00 +10°C° 0.2 mm 6 mps 737 mmHg 90%
09:00 +10°C° 0.1 mm 6 mps 737 mmHg 90%
10:00 +10°C° 0.1 mm 7 mps 737 mmHg 89%
11:00 +10°C° 0.1 mm 7 mps 738 mmHg 89%
12:00 +10°C° 0.5 mm 6 mps 738 mmHg 90%
13:00 +10°C° 0.5 mm 6 mps 738 mmHg 90%
14:00 +10°C° 0.5 mm 6 mps 739 mmHg 90%
15:00 +10°C° 0.5 mm 6 mps 739 mmHg 90%
16:00 +11°C° 0.5 mm 6 mps 739 mmHg 90%
17:00 +11°C° 0.5 mm 6 mps 739 mmHg 89%
18:00 +11°C° 0 mm 6 mps 740 mmHg 89%
19:00 +12°C° 0 mm 5 mps 740 mmHg 89%
20:00 +10°C° 0 mm 5 mps 740 mmHg 89%
21:00 +10°C° 0 mm 5 mps 740 mmHg 90%
22:00 +10°C° 0 mm 5 mps 740 mmHg 91%
23:00 +10°C° 0 mm 4 mps 740 mmHg 92%

19 May, Wednesday

Time Temperature Precipitation Wind Pressure Humidity
00:00 +10°C° 0 mm 4 mps 741 mmHg 93%
01:00 +8°C° 0 mm 4 mps 741 mmHg 95%
02:00 +8°C° 0 mm 4 mps 741 mmHg 96%
03:00 +7°C° 0 mm 4 mps 741 mmHg 96%
04:00 +7°C° 0 mm 4 mps 741 mmHg 96%
05:00 +7°C° 0 mm 4 mps 741 mmHg 96%
06:00 +8°C° 0 mm 5 mps 742 mmHg 94%
07:00 +9°C° 0 mm 5 mps 742 mmHg 91%
08:00 +10°C° 0 mm 5 mps 742 mmHg 89%
09:00 +11°C° 0 mm 6 mps 742 mmHg 80%
10:00 +13°C° 0 mm 6 mps 742 mmHg 72%
11:00 +15°C° 0 mm 7 mps 742 mmHg 63%
12:00 +15°C° 0.1 mm 6 mps 742 mmHg 63%
13:00 +15°C° 0.1 mm 5 mps 742 mmHg 62%
14:00 +15°C° 0.1 mm 5 mps 742 mmHg 62%
15:00 +15°C° 0.1 mm 5 mps 742 mmHg 64%
16:00 +15°C° 0.1 mm 5 mps 742 mmHg 66%
17:00 +15°C° 0.1 mm 5 mps 742 mmHg 68%
18:00 +14°C° 0.2 mm 5 mps 742 mmHg 75%
19:00 +12°C° 0.2 mm 4 mps 742 mmHg 82%
20:00 +11°C° 0.2 mm 4 mps 743 mmHg 89%
21:00 +10°C° 0 mm 3 mps 743 mmHg 91%
22:00 +9°C° 0 mm 3 mps 743 mmHg 93%
23:00 +8°C° 0 mm 3 mps 743 mmHg 96%

20 May, Thursday

Time Temperature Precipitation Wind Pressure Humidity
00:00 +8°C° 0 mm 3 mps 743 mmHg 95%
01:00 +7°C° 0 mm 3 mps 743 mmHg 95%
02:00 +7°C° 0 mm 3 mps 743 mmHg 94%
03:00 +5°C° 0 mm 3 mps 743 mmHg 93%
04:00 +5°C° 0 mm 3 mps 743 mmHg 92%
05:00 +4°C° 0 mm 3 mps 743 mmHg 90%
06:00 +5°C° 0 mm 3 mps 743 mmHg 86%
07:00 +7°C° 0 mm 4 mps 744 mmHg 81%
08:00 +8°C° 0 mm 4 mps 744 mmHg 76%
09:00 +10°C° 0 mm 4 mps 744 mmHg 72%
10:00 +11°C° 0 mm 4 mps 744 mmHg 68%
11:00 +12°C° 0 mm 5 mps 744 mmHg 63%
12:00 +12°C° 0 mm 5 mps 744 mmHg 63%
13:00 +13°C° 0 mm 5 mps 744 mmHg 63%
14:00 +13°C° 0 mm 5 mps 744 mmHg 62%
15:00 +14°C° 0 mm 4 mps 744 mmHg 63%
16:00 +14°C° 0 mm 4 mps 744 mmHg 65%
17:00 +14°C° 0 mm 3 mps 744 mmHg 66%
18:00 +13°C° 0.2 mm 3 mps 744 mmHg 71%
19:00 +12°C° 0.2 mm 3 mps 744 mmHg 76%
20:00 +11°C° 0.2 mm 3 mps 744 mmHg 81%
21:00 +10°C° 0 mm 3 mps 744 mmHg 84%
22:00 +10°C° 0 mm 3 mps 745 mmHg 86%
23:00 +9°C° 0 mm 3 mps 745 mmHg 89%

21 May, Friday

Time Temperature Precipitation Wind Pressure Humidity
00:00 +8°C° 0 mm 3 mps 745 mmHg 90%
01:00 +8°C° 0 mm 3 mps 745 mmHg 91%
02:00 +7°C° 0 mm 3 mps 745 mmHg 92%
03:00 +7°C° 0 mm 3 mps 745 mmHg 93%
04:00 +5°C° 0 mm 3 mps 745 mmHg 94%
05:00 +5°C° 0 mm 3 mps 745 mmHg 95%
06:00 +7°C° 0 mm 3 mps 746 mmHg 88%
07:00 +9°C° 0 mm 3 mps 746 mmHg 82%
08:00 +11°C° 0 mm 4 mps 746 mmHg 76%
09:00 +12°C° 0 mm 4 mps 746 mmHg 70%
10:00 +14°C° 0 mm 4 mps 746 mmHg 64%
11:00 +15°C° 0 mm 4 mps 746 mmHg 58%
12:00 +15°C° 0.2 mm 4 mps 746 mmHg 60%
13:00 +15°C° 0.2 mm 4 mps 745 mmHg 61%
14:00 +15°C° 0.2 mm 4 mps 745 mmHg 63%
15:00 +15°C° 0.1 mm 4 mps 745 mmHg 62%
16:00 +15°C° 0.1 mm 4 mps 745 mmHg 61%
17:00 +17°C° 0.1 mm 4 mps 745 mmHg 59%
18:00 +14°C° 0.1 mm 3 mps 745 mmHg 66%
19:00 +13°C° 0.1 mm 3 mps 745 mmHg 72%
20:00 +13°C° 0.1 mm 2 mps 745 mmHg 78%
21:00 +12°C° 0 mm 2 mps 745 mmHg 80%
22:00 +10°C° 0 mm 3 mps 745 mmHg 82%
23:00 +9°C° 0 mm 3 mps 745 mmHg 84%
Show more